[[{"header":{"parameterUnit":"m.s-1","parameterCategory":1,"la1":30.2992,"la2":30.254,"lo1":-89.0895,"lo2":-89.0443,"dy":0.0025,"dx":0.0025,"nx":19,"ny":19,"refTime":"2026-03-18T09:00:00:Z","depth":0,"parameterNumber":2,"parameterNumberName":"U-component_of_WINDS"},"data":[0,0,0,-1.9209,-1.9211,-1.9315,-1.9316,-1.9456,-1.9457,0,0,0,0,0,0,0,0,0,0,0,-1.9185,-1.9186,-1.9209,-1.9211,-1.9315,-1.9316,-1.9456,-1.9457,0,0,0,0,0,0,0,0,0,0,0,-1.9184,-1.9186,-1.9187,-1.9212,-1.9315,-1.9316,-1.9455,-1.9374,0,0,0,0,0,0,0,0,0,0,-1.9271,-1.9256,-1.9185,-1.9187,-1.9212,-1.9315,-1.9316,-1.937,-1.9379,-1.9413,0,-1.9447,0,-1.9454,-1.9467,-1.9468,0,0,0,-1.9206,-1.9249,-1.9271,-1.9187,-1.9214,-1.9315,-1.9267,-1.9375,-1.9385,-1.9425,-1.9448,-1.9453,-1.9457,-1.9468,-1.9469,-1.9686,-1.9687,0,0,-1.92,-1.9207,-1.9264,-1.9278,-1.9265,-1.9264,-1.927,-1.9381,-1.9406,-1.9449,-1.9456,-1.9459,-1.9469,-1.947,-1.9685,-1.9686,0,0,0,-1.9187,-1.9203,-1.9222,-1.9273,-1.9291,-1.9267,-1.9274,-1.9401,-1.9407,-1.9458,-1.9461,-1.947,-1.9472,-1.9683,-1.9685,-1.9754,0,0,0,-1.9184,-1.9196,-1.922,-1.9225,-1.9289,-1.9348,-1.9292,-1.9399,-1.9412,-1.946,-1.947,-1.9473,-1.9682,-1.9684,-1.9749,-1.9784,0,0,0,-1.9176,-1.9194,-1.9212,-1.9225,-1.927,-1.9346,-1.9358,-1.9402,-1.9414,-1.9468,-1.9474,-1.9681,-1.9684,-1.9744,-1.9777,-1.9842,0,0,0,-1.9169,-1.9272,-1.9213,-1.9329,-1.9269,-1.9388,-1.9357,-1.9445,-1.95,-1.9471,-1.9682,-1.9685,-1.9743,-1.9773,-1.9837,-1.9897,-1.9923,0,0,-1.9302,-1.9288,-1.9356,-1.9307,-1.9438,-1.9372,-1.9512,-1.9556,-1.9555,-1.9642,-1.9647,-1.975,-1.9777,-1.9841,-2.0068,-2.0088,0,0,0,-1.9401,-1.9449,-1.9482,-1.9536,-1.9572,-1.9605,-1.9627,-1.9643,-1.9716,-1.9602,-1.9792,-1.9807,-1.9845,-1.9872,-1.989,-1.9921,-1.9699,-1.9698,-1.9698,-1.9599,-1.9592,-1.9703,-1.9708,-1.976,-1.978,-1.9821,-1.9845,-1.9823,-1.9868,-1.9893,-2.0032,-2.0065,-2.0078,-2.011,-1.9925,-1.9926,-1.9926,-1.9926,-1.9793,-1.9859,-1.9827,-1.9923,-1.9914,-1.9994,-2.0017,-1.9999,-2.007,-2.0013,-2.0045,-1.9982,-2.0101,-2.0128,-1.9931,-1.993,-1.993,-1.9929,-1.9929,-1.992,-1.9951,-1.9969,-2.0044,-2.0102,-2.0103,-2.0173,-2.0163,-2.0153,-2.0185,-2.0209,-2.0208,-2.0204,-2.0198,-2.0199,-2.0199,-2.0199,-2.02,-2.02,-2.0045,-2.0063,-2.0124,-2.0171,-2.0202,-2.0242,-2.0263,-2.0293,-2.0324,-2.0311,-2.0311,-2.0282,-2.0115,-2.0072,-2.0207,-2.0206,-2.0205,-2.0204,-2.0204,-2.0242,-2.0195,-2.0289,-2.0321,-2.0373,-2.043,-2.0416,-2.0478,-2.0502,-2.0536,-2.0501,-2.0379,-2.0364,-2.035,-2.0314,-2.0504,-2.0504,-2.0504,-2.0504,-2.0348,-2.0339,-2.0432,-2.0483,-2.0532,-2.0528,-2.0632,-2.0648,-2.0658,-2.0671,-2.0642,-2.0594,-2.0581,-2.0573,-2.0554,-2.052,-2.0758,-2.0759,-2.0759,-2.0467,-2.0463,-2.0554,-2.0564,-2.0603,-2.0637,-2.0733,-2.0791,-2.0792,-2.0769,-2.0681,-2.067,-2.0592,-2.0568,-2.0542,-2.0513,-2.0451,0,0]},{"header":{"parameterUnit":"m.s-1","parameterCategory":1,"la1":30.2992,"la2":30.254,"lo1":-89.0895,"lo2":-89.0443,"dy":0.0025,"dx":0.0025,"nx":19,"ny":19,"refTime":"2026-03-18T09:00:00:Z","depth":0,"parameterNumber":3,"parameterNumberName":"V-component_of_WINDS"},"data":[0,0,0,-1.0513,-1.0513,-1.0525,-1.0525,-1.0545,-1.0546,0,0,0,0,0,0,0,0,0,0,0,-1.0513,-1.0513,-1.0513,-1.0513,-1.0525,-1.0525,-1.0545,-1.0546,0,0,0,0,0,0,0,0,0,0,0,-1.0513,-1.0513,-1.0513,-1.0513,-1.0525,-1.0525,-1.0545,-1.0535,0,0,0,0,0,0,0,0,0,0,-1.0522,-1.0525,-1.0513,-1.0513,-1.0513,-1.0525,-1.0525,-1.0534,-1.0535,-1.0542,0,-1.0549,0,-1.0548,-1.0547,-1.0547,0,0,0,-1.0511,-1.0524,-1.0524,-1.0513,-1.0514,-1.0525,-1.0519,-1.0535,-1.0536,-1.0544,-1.055,-1.055,-1.0548,-1.0547,-1.0548,-1.0595,-1.0596,0,0,-1.051,-1.0517,-1.0523,-1.0525,-1.0524,-1.0519,-1.0519,-1.0535,-1.0542,-1.055,-1.0551,-1.0549,-1.0548,-1.0548,-1.0595,-1.0596,0,0,0,-1.051,-1.0516,-1.0516,-1.0525,-1.0526,-1.0519,-1.052,-1.0541,-1.0541,-1.0551,-1.0549,-1.0548,-1.0548,-1.0595,-1.0595,-1.0618,0,0,0,-1.0509,-1.0516,-1.0516,-1.052,-1.0526,-1.0534,-1.0526,-1.054,-1.0541,-1.0549,-1.0548,-1.0548,-1.0594,-1.0595,-1.0617,-1.0628,0,0,0,-1.0511,-1.0516,-1.0519,-1.052,-1.0526,-1.0534,-1.0534,-1.054,-1.054,-1.0547,-1.0548,-1.0594,-1.0595,-1.0615,-1.0626,-1.0642,0,0,0,-1.0514,-1.054,-1.052,-1.0547,-1.0525,-1.0548,-1.0534,-1.055,-1.0559,-1.0548,-1.0594,-1.0595,-1.0615,-1.0625,-1.0641,-1.0658,-1.0665,0,0,-1.055,-1.0544,-1.056,-1.0542,-1.0569,-1.0545,-1.0576,-1.0578,-1.0573,-1.0588,-1.0589,-1.0617,-1.0626,-1.0642,-1.0704,-1.071,0,0,0,-1.0573,-1.0585,-1.059,-1.0599,-1.0601,-1.0603,-1.06,-1.0601,-1.0613,-1.0582,-1.0627,-1.0632,-1.0641,-1.0649,-1.0654,-1.0662,-1.0599,-1.0599,-1.0599,-1.0634,-1.0625,-1.065,-1.0643,-1.0651,-1.0647,-1.0653,-1.0653,-1.0642,-1.0653,-1.0658,-1.0696,-1.0705,-1.0709,-1.0717,-1.0665,-1.0666,-1.0666,-1.0666,-1.0686,-1.0701,-1.0684,-1.0703,-1.0693,-1.0709,-1.0705,-1.0697,-1.071,-1.0692,-1.07,-1.0682,-1.0716,-1.0723,-1.0667,-1.0667,-1.0667,-1.0667,-1.0667,-1.0725,-1.0731,-1.073,-1.0741,-1.075,-1.0741,-1.0754,-1.0745,-1.0736,-1.0744,-1.0748,-1.0747,-1.0746,-1.0746,-1.0746,-1.0746,-1.0746,-1.0746,-1.0747,-1.0766,-1.0765,-1.0777,-1.078,-1.0783,-1.0787,-1.0782,-1.0785,-1.0787,-1.0779,-1.0779,-1.0767,-1.0721,-1.0709,-1.0749,-1.0748,-1.0748,-1.0748,-1.0748,-1.0823,-1.0808,-1.0827,-1.083,-1.0832,-1.0841,-1.0829,-1.0836,-1.0838,-1.0844,-1.083,-1.0797,-1.0791,-1.0787,-1.0777,-1.0832,-1.0832,-1.0832,-1.0832,-1.0857,-1.0852,-1.0868,-1.0874,-1.0879,-1.0869,-1.0889,-1.0885,-1.0879,-1.0879,-1.0869,-1.0856,-1.0852,-1.0848,-1.0843,-1.0834,-1.0901,-1.0901,-1.0902,-1.0891,-1.0886,-1.0906,-1.0898,-1.0899,-1.0899,-1.0918,-1.0926,-1.0915,-1.0904,-1.0879,-1.0876,-1.0854,-1.0847,-1.0837,-1.0829,-1.0812,0,0]}]]